Home   Weather   Burnaby   Past weeks

Flag for Canada Past Weather in Burnaby, British Columbia, Canada — Yesterday and Last 2 Weeks

Now
63 °F

Passing clouds.


Feels Like: 63 °F
Forecast: 53 / 81 °F
Wind: 3 mph from Northwest

Location: Vancouver International Airport

Current Time: May 27, 2017 at 10:05:22 pm

Latest Report: May 27, 2017 at 9:00 pm


Visibility: 30 mi

Pressure: 30.04 "Hg

Humidity: 77%

Dew Point: 55 °F

Location of BurnabyLocation

Past Weather in Burnaby — Graph

°F

Burnaby Temperature Yesterday

Maximum temperature yesterday: 68 °F (at 4:00 pm)
Minimum temperature yesterday: 48 °F (at 5:00 am)
Average temperature yesterday: 60 °F

High & Low Weather Summary for the Past Weeks

 TemperatureHumidityPressure
High72 °F (May 23, 2:00 pm)100% (May 15, 9:00 pm)30.27 "Hg (May 15, 9:00 pm)
Low43 °F (May 16, 3:00 am)46% (May 23, 6:00 pm)29.54 "Hg (May 16, 6:00 am)
Average56 °F76%30.00 "Hg
* Reported May 12 8:00 pm — May 27 8:00 pm, Burnaby. Weather by CustomWeather, © 2017

Note: Actual official high and low records may vary slightly from our data, if they occured in-between our weather recording intervals... More about our weather records

Advertising

Burnaby Weather History for the Previous 24 Hours

Scroll right to see more
 ConditionsComfort  
Time TempWeatherWind HumidityBarometerVisibility
8:00 pm
Sat, May 27
68 °FSunny.3 mph69%30.04 "Hg30 mi
7:00 pm70 °FSunny.3 mph60%30.04 "Hg30 mi
6:00 pm72 °FPassing clouds.3 mph53%30.06 "Hg30 mi
5:00 pm72 °FPassing clouds.6 mph47%30.06 "Hg30 mi
4:00 pm72 °FPassing clouds.6 mph50%30.08 "Hg30 mi
3:00 pm72 °FPassing clouds.6 mph50%30.09 "Hg30 mi
2:00 pm70 °FPassing clouds.6 mph50%30.10 "Hg30 mi
1:00 pm68 °FPassing clouds.6 mph60%30.10 "Hg30 mi
12:00 pm66 °FPassing clouds.6 mph64%30.11 "Hg30 mi
11:00 am66 °FPassing clouds.6 mph56%30.11 "Hg30 mi
10:00 am63 °FPassing clouds.7 mph73%30.11 "Hg30 mi
9:00 am61 °FPassing clouds.7 mph77%30.10 "Hg30 mi
8:00 am63 °FPassing clouds.2 mph68%30.09 "Hg30 mi
7:00 am59 °FScattered clouds.No wind82%30.08 "Hg30 mi
6:00 am54 °FPartly sunny.No wind88%30.07 "Hg30 mi
5:00 am52 °FPassing clouds.No wind82%30.06 "Hg30 mi
4:00 am55 °FPassing clouds.2 mph82%30.05 "Hg30 mi
3:00 am54 °FClear.6 mph88%30.04 "Hg30 mi
2:00 am55 °FClear.2 mph94%30.02 "Hg30 mi
1:00 am55 °FPassing clouds.5 mph94%30.01 "Hg30 mi
12:00 am59 °FPassing clouds.7 mph77%30.00 "Hg30 mi
11:00 pm
Fri, May 26
61 °FPassing clouds.6 mph68%29.99 "Hg30 mi
10:00 pm57 °FPassing clouds.2 mph94%29.98 "Hg30 mi
Weather by CustomWeather, © 2017

See weather overviewHow to use our weather pages